Temp
58 58 58 58 58 58 58 58 58 59 58 58 59 59 59 59 59 61 71 79 71 67 72 77 78 73 75 75 69 75 74 75 74 67 68 69 68 72 71 73 70 68 66 65 64 56 57 78 75 72 77 85 84 83
58 58 58 58 58 58 58 58 58 58 58 58 58 59 59 59 58 58 69 79 79 68 70 78 79 81 79 78 74 75 72 71 74 69 70 70 67 70 67 62 76 65 69 63 66 63 65 76 71 68 83 81 82 82
57 57 57 57 57 57 58 58 58 58 58 58 58 58 59 59 58 58 65 72 74 70 73 78 77 85 87 85 86 70 75 78 76 79 71 69 62 70 62 66 68 73 75 68 66 67 63 71 73 64 62 75 83 85
57 57 57 57 57 57 57 57 57 57 57 58 58 58 59 59 58 57 64 72 73 68 63 76 88 79 86 87 84 83 79 80 79 77 70 67 64 74 66 68 65 71 72 68 68 72 72 75 73 68 68 72 79 83
56 57 57 56 56 57 57 57 57 57 57 57 58 58 58 58 57 61 68 74 76 64 61 65 76 84 87 85 81 80 78 76 73 69 68 65 71 68 69 68 65 73 68 65 63 67 70 71 67 72 64 69 73 80
56 56 56 56 56 56 57 57 56 56 56 57 57 57 58 57 57 65 65 70 71 71 63 61 79 78 81 81 79 77 77 76 74 69 67 70 73 66 58 59 69 74 74 74 68 72 75 76 78 81 73 75 81 80
55 55 55 56 56 56 56 56 56 56 56 56 56 56 56 56 61 63 60 62 58 71 58 59 67 78 80 79 78 76 75 72 71 67 65 67 63 63 59 54 67 69 71 70 70 70 67 72 72 78 82 82 81 83
55 55 55 56 56 56 56 56 55 55 56 56 56 56 56 55 56 60 69 59 62 65 63 54 62 72 80 72 69 75 71 67 68 65 67 63 62 62 56 64 63 64 65 67 68 71 71 73 73 76 81 82 81 80
55 55 55 55 56 56 56 56 55 55 55 56 56 56 60 60 65 66 61 59 67 63 53 57 58 58 79 73 69 69 67 62 66 62 60 63 62 54 62 63 64 65 64 65 67 69 70 70 70 72 76 78 78 79
54 54 55 55 55 55 55 55 55 55 55 55 54 53 54 64 58 61 63 57 56 59 60 56 66 61 70 64 66 63 66 61 57 62 68 59 60 60 61 63 63 63 63 63 60 60 64 66 68 70 72 75 76 76
54 54 55 55 55 55 54 54 54 54 53 55 52 57 65 59 67 63 53 53 55 53 60 63 64 63 71 62 57 63 58 61 51 59 57 57 59 59 62 65 65 64 65 64 61 59 63 65 67 67 70 74 76 77
54 54 54 55 55 54 54 54 54 55 56 54 54 60 70 62 57 51 51 58 55 53 63 61 58 64 60 70 61 61 55 57 50 64 57 55 57 63 64 65 64 65 64 64 63 59 62 65 67 70 72 74 75 76
54 54 54 54 54 54 54 54 54 55 54 56 57 58 56 56 41 47 49 53 54 61 66 62 59 61 64 66 55 52 48 52 64 56 55 61 60 63 64 63 61 62 60 60 60 61 65 65 68 70 70 74 74 74
54 54 54 54 54 54 53 53 54 54 51 52 53 39 50 51 54 58 58 59 65 62 63 66 59 57 61 56 56 49 57 59 51 50 53 59 60 61 60 59 57 57 59 60 62 65 67 68 67 68 72 75 70 69
53 53 53 53 53 53 53 54 54 56 56 54 55 43 53 62 64 65 68 67 67 67 62 60 58 55 56 54 53 56 53 50 54 53 59 64 60 60 59 56 57 59 58 59 61 66 68 68 68 71 74 74 72 71
53 52 53 53 53 53 53 55 55 55 57 57 56 55 61 61 59 63 63 63 65 65 66 63 55 52 54 56 52 52 52 51 55 61 62 62 61 60 58 58 58 61 58 59 62 67 72 71 72 73 74 72 69 74
54 52 53 53 53 53 53 58 55 52 54 55 57 66 64 61 62 62 67 59 71 67 53 58 52 53 59 52 52 57 52 57 64 67 65 63 61 61 60 58 57 57 56 59 65 67 67 70 75 73 70 73 74 75
54 54 53 53 53 54 56 59 53 50 50 58 56 61 62 64 64 65 68 65 65 64 57 52 53 54 53 51 51 56 61 69 71 70 64 63 63 62 58 57 57 56 56 59 63 64 61 60 60 63 66 68 75 71
54 52 53 54 55 54 51 54 57 50 55 60 61 64 64 62 65 66 68 67 66 67 65 60 55 57 57 61 62 68 67 67 67 66 61 65 65 63 58 57 58 56 57 57 59 59 64 68 68 68 72 73 63 63
52 52 53 53 54 52 51 52 62 56 56 59 64 58 58 61 64 68 68 69 67 64 57 58 61 64 64 68 65 67 69 68 68 64 64 66 68 60 59 57 58 56 56 57 58 54 60 62 67 67 67 64 61 61
52 52 53 55 55 57 57 51 54 58 59 57 61 59 60 64 61 62 62 68 61 61 61 66 67 70 65 70 75 73 71 68 69 67 63 62 68 63 60 59 58 59 56 56 56 56 56 59 60 61 60 61 63 62
54 54 54 54 54 57 58 63 58 60 56 59 59 60 55 53 56 60 64 61 59 60 67 68 69 70 71 68 66 71 72 71 71 65 57 59 63 63 65 61 63 61 59 58 57 56 57 58 59 60 59 60 59 60
52 55 56 58 53 50 49 63 52 56 51 55 59 55 55 54 59 67 52 58 63 68 68 69 69 71 70 71 71 71 70 70 67 65 66 67 65 65 66 67 69 65 62 60 59 58 58 53 56 59 60 60 59 59
54 56 52 52 53 47 58 52 58 56 58 56 55 53 54 54 58 57 56 58 65 61 60 68 71 68 70 69 66 66 67 71 70 74 73 63 71 70 69 68 69 68 69 69 63 60 59 59 54 58 59 58 58 58
44 46 48 40 55 51 49 52 54 55 51 54 54 54 56 63 56 56 57 60 62 65 67 68 66 68 62 62 59 67 75 76 74 73 75 71 72 72 68 67 67 70 68 67 65 62 60 61 60 60 59 58 58 58
38 51 44 52 53 52 52 49 50 51 54 52 54 59 60 56 53 51 51 58 60 62 63 63 62 58 57 58 58 64 74 77 77 75 76 79 78 76 73 68 68 63 70 72 68 65 65 66 65 64 64 61 52 64
41 49 56 60 59 57 55 54 56 55 50 48 53 54 55 50 50 52 56 61 58 61 69 72 68 59 56 60 68 76 79 79 77 77 79 79 79 78 76 72 70 74 77 75 75 72 70 70 70 70 69 68 68 69
54 57 53 58 56 61 53 52 48 46 50 57 56 48 47 54 55 61 59 62 68 76 77 70 63 71 76 76 80 80 81 82 81 81 80 81 81 80 78 78 77 56 72 71 78 77 76 74 73 72 72 71 71 72
54 58 58 52 53 54 50 47 49 56 59 52 50 55 57 62 69 70 71 74 82 79 76 69 72 81 82 82 82 81 80 77 76 70 66 71 70 75 79 80 79 79 79 78 51 60 71 75 75 75 74 73 72 73
56 62 56 54 49 46 50 58 58 61 63 60 58 61 70 72 77 81 81 81 80 79 81 81 82 82 79 79 78 78 81 80 81 74 70 69 73 79 77 77 78 80 79 77 77 76 59 67 65 75 74 73 73 72
62 61 56 51 48 58 62 66 68 66 64 65 72 68 71 73 77 81 83 84 83 82 81 79 82 82 81 79 77 75 75 80 79 79 77 72 78 81 80 79 80 81 80 79 78 74 76 73 72 73 72 72 70 67
60 57 55 50 56 66 68 64 65 64 62 60 51 54 57 65 70 77 83 84 82 80 66 77 77 76 79 80 79 82 63 79 80 81 78 73 80 82 77 81 84 82 81 75 78 76 76 74 71 68 72 69 69 70
58 58 59 60 61 60 64 65 63 59 60 50 52 55 55 60 68 75 82 83 82 81 77 81 82 79 77 72 70 77 71 76 56 44 46 44 43 59 77 76 82 81 76 78 73 70 73 68 62 62 71 72 72 73
MSLP
1022.80 1022.75 1022.68 1022.58 1022.46 1022.36 1022.25 1022.16 1022.12 1022.06 1021.93 1021.74 1021.49 1021.14 1020.77 1020.37 1019.97 1019.44 1016.73 1015.45 1015.31 1013.75 1011.47 1010.63 1009.98 1009.58 1009.02 1008.55 1007.91 1007.15 1006.89 1006.19 1005.78 1005.39 1004.71 1003.86 1003.06 1002.25 1001.62 1001.31 1001.17 1001.09 1001.11 1001.24 1001.46 1001.81 1001.45 1001.39 1000.90 1001.45 1000.31 999.45 999.94 1000.14
1022.35 1022.29 1022.25 1022.23 1022.15 1022.03 1021.94 1021.85 1021.83 1021.83 1021.74 1021.62 1021.42 1021.18 1020.87 1020.55 1020.20 1019.73 1017.14 1015.56 1015.35 1014.86 1012.39 1011.55 1010.89 1010.32 1010.11 1009.73 1009.35 1008.71 1008.10 1007.79 1007.15 1006.63 1005.79 1005.42 1004.62 1003.87 1003.23 1002.44 1002.06 1002.53 1002.89 1003.28 1003.44 1003.41 1003.60 1003.60 1004.11 1003.92 1002.43 1001.34 1001.09 1000.86
1021.89 1021.88 1021.81 1021.76 1021.76 1021.72 1021.64 1021.53 1021.50 1021.54 1021.54 1021.46 1021.31 1021.12 1020.87 1020.64 1020.46 1020.31 1018.49 1016.83 1015.47 1013.79 1011.48 1009.59 1008.80 1008.20 1009.15 1009.40 1009.52 1009.27 1008.60 1008.14 1007.75 1007.71 1007.55 1006.99 1006.16 1005.58 1004.76 1003.91 1003.55 1003.39 1003.80 1004.12 1004.81 1004.35 1004.79 1005.24 1004.73 1004.95 1004.52 1005.03 1002.20 1001.39
1021.36 1021.38 1021.39 1021.38 1021.37 1021.35 1021.31 1021.24 1021.20 1021.25 1021.31 1021.29 1021.19 1021.01 1020.79 1020.62 1020.44 1020.26 1018.83 1017.15 1015.91 1015.09 1012.42 1008.46 1008.07 1008.78 1009.00 1008.87 1009.01 1009.08 1009.10 1009.01 1008.90 1008.53 1008.02 1007.59 1007.14 1006.35 1005.95 1005.46 1005.36 1005.03 1004.75 1004.55 1004.49 1004.64 1004.63 1005.01 1005.57 1006.14 1006.76 1005.31 1004.06 1002.47
1020.88 1020.86 1020.96 1020.93 1020.91 1020.93 1020.93 1020.88 1020.89 1020.95 1021.04 1021.07 1021.03 1020.91 1020.71 1020.53 1020.35 1019.75 1018.34 1016.79 1016.09 1016.56 1013.80 1011.17 1009.70 1008.47 1008.19 1008.25 1008.86 1009.20 1009.32 1009.19 1008.96 1008.59 1008.15 1008.01 1007.71 1007.31 1007.22 1006.84 1005.90 1005.61 1005.14 1005.12 1004.94 1005.12 1005.28 1005.55 1006.02 1005.66 1006.17 1005.89 1004.37 1003.19
1020.32 1020.29 1020.41 1020.42 1020.44 1020.50 1020.52 1020.49 1020.54 1020.70 1020.83 1020.89 1020.87 1020.77 1020.60 1020.46 1020.25 1018.94 1016.80 1016.76 1016.96 1016.47 1015.18 1011.93 1009.06 1008.10 1008.21 1008.37 1008.72 1008.94 1009.03 1008.93 1009.00 1008.64 1008.51 1008.50 1008.52 1008.77 1008.10 1007.01 1006.65 1006.03 1005.95 1005.95 1006.03 1005.82 1005.31 1005.06 1004.94 1004.71 1004.57 1004.65 1003.86 1003.27
1019.70 1019.74 1019.80 1019.88 1019.96 1020.05 1020.13 1020.17 1020.22 1020.43 1020.66 1020.79 1020.71 1020.67 1020.51 1020.38 1020.08 1018.71 1018.65 1018.27 1018.42 1017.29 1016.06 1013.08 1009.33 1007.85 1008.11 1008.40 1008.37 1008.39 1009.12 1009.22 1009.29 1009.18 1009.05 1008.80 1009.04 1009.32 1008.55 1007.68 1007.47 1007.38 1006.96 1006.71 1006.85 1006.28 1005.84 1005.41 1004.64 1004.00 1003.20 1002.74 1002.48 1002.57
1019.07 1019.22 1019.26 1019.37 1019.47 1019.59 1019.68 1019.73 1019.97 1020.29 1020.52 1020.63 1020.57 1020.52 1020.36 1020.17 1019.76 1018.76 1017.27 1017.72 1018.41 1017.29 1016.06 1013.92 1010.31 1007.96 1007.88 1007.78 1007.91 1008.52 1008.86 1009.55 1009.34 1009.02 1008.95 1008.90 1009.12 1008.99 1008.16 1007.77 1008.20 1008.26 1008.13 1007.75 1007.44 1007.08 1006.53 1005.83 1005.24 1003.87 1002.50 1002.00 1001.80 1001.74
1018.50 1018.64 1018.76 1018.87 1018.99 1019.17 1019.33 1019.42 1019.80 1020.16 1020.36 1020.44 1020.42 1020.34 1019.76 1019.38 1017.51 1017.09 1017.72 1018.01 1017.88 1017.34 1015.70 1013.50 1010.72 1008.76 1008.03 1008.03 1008.85 1009.23 1009.44 1008.99 1008.93 1008.92 1008.84 1008.83 1008.06 1008.09 1007.69 1007.92 1008.25 1008.45 1008.44 1007.95 1007.42 1006.80 1006.16 1005.42 1004.78 1004.09 1002.88 1001.89 1001.41 1001.28
1017.89 1018.10 1018.20 1018.41 1018.62 1018.80 1019.04 1019.25 1019.68 1020.06 1020.29 1020.33 1020.37 1019.97 1018.39 1017.08 1017.54 1017.86 1018.01 1017.31 1017.09 1016.17 1015.21 1012.94 1011.21 1009.61 1009.04 1009.33 1009.15 1009.92 1009.85 1009.39 1008.85 1008.13 1007.81 1008.01 1007.55 1008.05 1008.27 1008.54 1008.37 1008.10 1008.03 1007.95 1007.28 1006.37 1005.91 1005.13 1004.46 1003.95 1003.15 1002.60 1002.15 1001.88
1017.32 1017.55 1017.71 1017.96 1018.23 1018.45 1018.73 1019.14 1019.62 1020.08 1020.37 1020.18 1019.65 1018.19 1017.26 1017.46 1017.18 1016.70 1016.45 1015.83 1014.96 1014.24 1013.11 1011.53 1010.79 1009.74 1009.83 1009.73 1010.31 1010.72 1010.38 1010.01 1009.37 1008.36 1008.14 1007.30 1006.84 1007.85 1008.31 1008.11 1007.91 1007.77 1007.31 1006.91 1006.72 1006.32 1005.58 1004.98 1003.99 1003.68 1003.08 1002.43 1002.11 1001.71
1016.78 1017.07 1017.27 1017.56 1017.86 1018.09 1018.52 1019.07 1019.50 1019.87 1019.54 1019.44 1019.43 1017.86 1016.46 1016.36 1016.24 1015.90 1014.76 1013.48 1013.12 1012.04 1011.08 1010.49 1010.55 1010.05 1010.87 1010.70 1010.86 1011.43 1011.06 1010.73 1009.18 1008.69 1008.23 1007.26 1007.66 1008.10 1008.03 1007.60 1007.45 1007.13 1006.60 1005.97 1005.62 1005.08 1004.41 1003.75 1003.19 1002.48 1002.14 1001.84 1001.68 1001.72
1016.31 1016.64 1016.87 1017.24 1017.47 1017.89 1018.46 1018.92 1019.34 1019.46 1019.34 1018.92 1018.69 1017.05 1016.35 1015.58 1015.17 1014.17 1012.39 1011.61 1011.01 1010.58 1010.11 1010.22 1010.12 1010.60 1011.34 1011.54 1012.04 1012.16 1011.47 1009.94 1009.05 1008.55 1007.51 1006.87 1007.64 1007.70 1007.63 1007.41 1007.09 1006.62 1006.02 1005.23 1004.41 1003.73 1002.84 1002.18 1002.13 1001.65 1001.51 1001.50 1001.57 1001.63
1015.89 1016.22 1016.55 1016.89 1017.28 1017.84 1018.44 1018.93 1019.36 1019.70 1019.57 1018.40 1017.07 1016.58 1015.35 1013.71 1012.83 1011.48 1010.97 1010.52 1010.11 1010.22 1010.11 1009.92 1010.57 1010.96 1011.41 1011.62 1011.77 1011.47 1010.39 1009.66 1008.45 1007.54 1006.98 1007.35 1007.74 1007.80 1007.65 1007.41 1006.86 1006.08 1005.30 1004.28 1003.05 1001.86 1001.00 1000.55 1000.46 1000.61 1000.66 1000.78 1001.25 1001.19
1015.53 1015.95 1016.33 1016.76 1017.28 1017.90 1018.48 1018.97 1019.35 1019.37 1018.55 1017.07 1016.02 1014.80 1013.05 1011.89 1010.92 1010.54 1010.08 1010.14 1010.08 1010.04 1010.04 1010.28 1010.63 1011.02 1011.10 1011.29 1011.39 1010.41 1009.51 1008.47 1007.30 1006.71 1007.00 1007.31 1007.85 1007.79 1007.67 1007.37 1006.63 1005.71 1004.82 1003.63 1002.28 1000.86 1000.01 999.80 999.51 999.31 999.62 1000.03 1000.34 1000.39
1015.34 1015.90 1016.20 1016.72 1017.40 1018.03 1018.54 1019.02 1019.24 1018.87 1017.55 1016.18 1014.88 1013.21 1011.80 1010.90 1010.63 1010.33 1010.20 1009.98 1010.08 1009.84 1009.80 1010.09 1010.46 1010.48 1010.17 1010.00 1009.90 1008.95 1007.97 1007.18 1006.99 1006.88 1007.15 1007.45 1007.63 1007.62 1007.58 1007.24 1006.48 1005.53 1004.65 1003.55 1002.01 1000.66 999.51 999.04 998.80 998.82 999.08 999.25 999.36 999.58
1014.96 1015.51 1016.10 1016.78 1017.56 1018.20 1018.55 1018.37 1018.44 1017.84 1016.44 1014.83 1012.92 1011.69 1011.25 1010.88 1010.38 1010.16 1009.82 1010.21 1009.92 1009.85 1010.30 1010.28 1010.18 1009.39 1009.17 1008.97 1008.37 1007.74 1007.42 1007.08 1006.56 1006.52 1006.63 1007.05 1007.36 1007.44 1007.49 1007.09 1006.49 1005.54 1004.58 1003.55 1002.02 1000.67 999.72 999.21 998.72 998.67 998.79 998.62 998.74 998.80
1014.80 1015.43 1016.13 1016.99 1017.63 1018.34 1018.35 1018.03 1017.62 1016.85 1015.11 1013.47 1012.33 1011.39 1011.01 1010.62 1010.10 1009.82 1009.66 1009.76 1009.78 1009.59 1010.16 1010.57 1010.71 1009.23 1008.23 1007.89 1007.81 1007.62 1007.01 1006.39 1005.96 1006.03 1006.58 1007.07 1007.20 1007.39 1007.45 1007.13 1006.60 1005.66 1004.66 1003.66 1002.47 1001.01 1000.12 999.90 999.62 999.15 999.39 998.78 999.05 998.43
1014.71 1015.56 1016.40 1016.98 1017.17 1017.28 1017.33 1017.06 1016.49 1015.16 1013.45 1012.26 1011.67 1011.17 1010.73 1010.57 1010.21 1009.77 1009.35 1009.30 1009.69 1009.69 1009.58 1009.47 1009.04 1008.03 1007.89 1007.48 1006.93 1006.22 1006.33 1006.25 1006.14 1006.12 1006.58 1006.87 1007.07 1007.35 1007.47 1007.23 1006.81 1005.84 1005.01 1004.19 1003.35 1002.36 1001.57 1001.26 1000.58 1000.35 999.84 999.37 999.42 999.37
1015.47 1016.18 1016.73 1017.25 1017.45 1016.89 1016.18 1015.81 1015.35 1014.16 1012.35 1011.47 1010.99 1010.97 1010.67 1010.11 1009.57 1008.94 1008.82 1008.71 1009.01 1009.08 1009.00 1008.36 1007.69 1007.38 1007.37 1006.85 1006.63 1006.23 1006.18 1006.24 1006.08 1005.99 1006.05 1006.55 1006.89 1007.42 1007.38 1007.29 1006.98 1006.42 1005.62 1004.75 1003.76 1003.25 1002.82 1002.30 1001.85 1001.48 1000.92 1000.62 1000.52 1000.13
1016.34 1016.99 1017.58 1017.54 1017.04 1016.35 1015.32 1014.87 1014.13 1013.23 1012.29 1011.46 1010.53 1010.37 1009.81 1009.40 1009.24 1008.85 1008.71 1008.30 1008.56 1008.23 1007.61 1007.51 1007.26 1006.76 1006.80 1006.33 1006.09 1006.05 1006.01 1006.31 1006.10 1006.09 1006.47 1006.60 1006.68 1007.17 1007.18 1006.99 1006.83 1006.60 1006.22 1005.60 1004.82 1004.10 1003.36 1002.76 1002.77 1002.58 1002.08 1002.00 1001.96 1001.11
1016.10 1016.85 1017.16 1017.29 1016.36 1015.28 1014.39 1013.81 1013.63 1013.19 1012.67 1011.14 1010.44 1010.01 1009.69 1009.34 1008.87 1008.56 1008.46 1008.18 1007.92 1007.73 1007.29 1006.79 1006.62 1006.60 1006.20 1006.15 1006.32 1006.22 1006.12 1006.03 1006.09 1006.23 1006.39 1006.47 1006.48 1006.52 1006.29 1006.48 1006.24 1006.01 1006.22 1006.19 1006.01 1005.53 1004.84 1004.35 1004.16 1003.92 1003.53 1003.42 1003.14 1003.18
1016.41 1016.46 1015.96 1015.54 1015.06 1014.46 1013.92 1013.14 1013.08 1012.27 1011.59 1010.52 1009.87 1009.31 1009.14 1009.13 1008.70 1008.49 1008.58 1007.87 1007.26 1006.81 1006.68 1006.25 1006.29 1006.31 1006.25 1006.14 1006.08 1006.03 1006.00 1005.92 1005.96 1006.07 1006.00 1006.11 1006.22 1006.21 1006.12 1005.98 1005.80 1005.74 1005.92 1006.39 1006.62 1006.49 1006.25 1005.91 1005.28 1004.94 1004.87 1004.76 1004.60 1004.62
1015.41 1015.13 1014.58 1014.22 1014.13 1013.67 1013.16 1012.58 1012.04 1011.31 1010.43 1009.99 1009.47 1008.82 1008.64 1008.62 1008.25 1008.06 1007.49 1006.85 1006.62 1006.88 1006.93 1006.15 1005.90 1005.91 1005.81 1005.95 1005.87 1005.86 1005.74 1005.60 1005.44 1005.18 1005.40 1005.73 1005.44 1005.81 1006.19 1006.22 1006.01 1006.00 1005.81 1005.86 1006.52 1006.86 1006.82 1006.59 1006.37 1006.18 1006.02 1005.75 1005.61 1005.66
1015.03 1014.60 1014.36 1013.86 1013.13 1012.82 1012.25 1011.39 1010.90 1010.70 1010.14 1009.76 1009.12 1008.57 1008.63 1008.30 1007.98 1007.44 1007.04 1006.87 1006.87 1006.46 1006.22 1006.11 1006.31 1006.01 1006.31 1006.35 1006.52 1005.66 1004.77 1004.65 1004.65 1004.35 1004.36 1004.83 1004.88 1005.57 1006.01 1006.28 1006.23 1006.10 1006.11 1006.18 1006.60 1006.87 1007.11 1007.17 1007.09 1007.12 1007.15 1007.16 1007.30 1007.57
1014.24 1013.46 1013.36 1012.32 1011.87 1011.48 1011.21 1010.98 1010.81 1010.56 1010.27 1009.81 1009.37 1009.02 1008.66 1008.37 1007.80 1007.52 1007.63 1007.23 1006.86 1006.61 1006.35 1006.39 1006.65 1007.02 1007.26 1007.06 1006.69 1005.96 1005.07 1004.86 1004.69 1004.74 1004.80 1004.72 1004.82 1005.04 1005.33 1006.02 1006.19 1006.85 1006.51 1006.78 1007.01 1007.13 1007.12 1007.13 1007.14 1007.16 1007.26 1007.53 1007.75 1007.75
1013.34 1012.08 1011.60 1011.56 1011.12 1010.93 1010.78 1011.14 1010.94 1010.57 1010.53 1010.35 1009.70 1008.92 1008.40 1007.70 1007.28 1007.71 1007.74 1007.71 1007.14 1006.45 1006.04 1006.01 1006.72 1007.50 1007.14 1006.71 1006.22 1005.60 1005.24 1005.29 1005.46 1005.66 1005.82 1005.93 1006.04 1006.12 1006.24 1006.52 1006.61 1006.49 1006.37 1006.59 1006.75 1006.87 1006.91 1006.98 1007.03 1007.10 1007.28 1007.48 1007.71 1007.81
1011.61 1010.94 1010.50 1010.45 1010.45 1010.47 1010.62 1011.09 1011.23 1011.03 1010.63 1010.09 1009.60 1008.84 1008.13 1006.76 1006.51 1006.43 1006.89 1006.43 1006.24 1005.23 1005.25 1006.44 1006.28 1006.22 1005.72 1005.63 1005.45 1005.32 1005.20 1005.28 1005.56 1005.80 1006.02 1006.09 1006.31 1006.72 1007.04 1007.22 1007.36 1007.38 1007.50 1007.48 1006.95 1007.07 1007.31 1007.55 1007.69 1007.77 1007.83 1007.97 1008.26 1008.57
1010.82 1010.30 1010.15 1010.54 1010.64 1010.79 1011.20 1011.41 1011.09 1010.44 1010.19 1010.05 1009.34 1007.83 1006.86 1006.18 1005.57 1005.51 1005.25 1004.97 1004.27 1004.38 1004.99 1006.04 1005.85 1005.14 1005.04 1005.19 1005.38 1005.59 1006.01 1006.06 1006.10 1006.50 1006.90 1006.54 1006.67 1006.86 1007.05 1007.00 1007.23 1007.50 1007.69 1007.83 1008.05 1007.98 1007.80 1007.88 1008.05 1008.27 1008.49 1008.77 1008.97 1009.12
1009.94 1009.82 1010.00 1010.19 1010.67 1010.80 1010.68 1010.40 1009.82 1009.56 1009.03 1008.62 1008.11 1006.93 1006.13 1005.37 1005.00 1004.77 1004.34 1003.96 1003.88 1003.95 1004.13 1004.25 1004.35 1004.45 1004.62 1004.96 1005.35 1005.83 1006.22 1006.45 1006.41 1006.57 1006.59 1006.87 1006.66 1006.90 1007.25 1007.36 1007.67 1007.66 1007.89 1008.16 1008.29 1008.54 1008.77 1008.74 1008.82 1008.73 1008.97 1009.24 1009.34 1009.62
1009.70 1009.59 1009.80 1010.22 1010.25 1009.73 1009.27 1008.86 1008.41 1008.20 1008.00 1007.22 1006.39 1006.22 1005.64 1005.23 1005.08 1004.75 1004.28 1003.91 1003.94 1004.16 1004.28 1004.42 1004.38 1004.60 1004.87 1005.19 1005.69 1006.11 1006.18 1006.66 1006.80 1007.01 1007.23 1007.39 1007.13 1006.92 1007.09 1007.52 1007.48 1007.53 1007.64 1008.00 1008.11 1008.21 1008.45 1008.75 1009.19 1009.22 1009.43 1009.53 1009.79 1010.01
1009.48 1009.46 1009.69 1009.54 1008.90 1008.24 1007.98 1007.82 1007.29 1006.77 1007.14 1007.93 1008.56 1008.26 1007.36 1005.81 1004.63 1004.34 1004.22 1004.08 1004.01 1004.25 1004.96 1005.23 1005.47 1006.05 1006.04 1006.12 1006.43 1006.47 1007.25 1007.24 1007.17 1007.27 1007.89 1007.85 1007.23 1007.29 1007.75 1007.33 1007.12 1007.31 1007.53 1008.19 1008.25 1008.54 1008.84 1009.04 1009.60 1009.88 1009.59 1009.84 1009.97 1010.11
1009.74 1009.62 1009.25 1008.65 1007.92 1007.57 1007.13 1006.74 1006.62 1006.70 1007.09 1008.07 1008.51 1008.41 1007.42 1006.72 1004.74 1004.89 1004.97 1004.98 1004.62 1004.52 1005.26 1005.32 1005.74 1006.34 1006.75 1007.08 1007.25 1007.23 1007.46 1008.09 1008.58 1008.64 1008.82 1008.87 1008.80 1008.63 1008.35 1008.26 1007.71 1007.73 1008.10 1008.29 1008.67 1009.21 1009.44 1009.82 1010.14 1010.49 1009.93 1010.05 1010.23 1010.31
Wind_Speed
10 10 10 10 10 10 9 9 8 8 8 9 11 12 14 15 16 11 9 4 6 7 15 15 9 10 7 7 8 12 9 1 8 6 8 9 9 10 12 13 14 14 12 10 10 8 20 22 10 16 8 9 8 8
11 10 10 10 9 9 9 9 8 8 8 8 9 11 12 12 14 14 8 10 8 8 15 19 19 17 14 14 9 8 11 8 5 7 9 10 12 10 15 11 9 6 7 8 9 6 8 15 6 17 19 11 9 5
11 10 10 9 9 9 9 9 8 7 8 8 8 10 11 10 11 10 8 9 9 9 13 13 13 12 9 10 9 7 8 8 6 8 7 7 12 9 10 10 14 11 9 7 10 4 7 12 7 10 17 30 13 13
12 10 10 10 9 10 9 9 8 8 7 7 7 9 10 10 11 10 8 9 7 7 7 3 7 2 7 7 8 8 10 10 9 7 8 8 10 8 10 12 12 11 16 13 12 10 14 7 6 10 7 19 20 16
12 12 13 11 10 9 9 9 9 8 7 7 7 8 9 11 11 10 9 9 4 5 7 12 21 17 14 12 6 7 8 9 7 8 7 8 10 8 8 13 11 13 13 11 13 8 8 11 6 5 2 19 20 16
13 12 12 11 10 9 10 9 9 9 7 6 7 8 9 10 11 7 2 4 8 4 6 6 8 7 6 6 8 7 9 7 7 8 5 6 11 8 7 11 17 17 18 15 13 18 20 15 18 18 13 22 19 14
13 12 12 11 9 9 9 9 9 8 6 6 7 8 9 8 7 6 6 3 9 8 4 6 6 9 5 7 8 6 2 4 4 4 7 9 7 7 8 14 17 16 16 16 15 12 17 18 18 23 19 15 14 16
12 12 11 10 9 9 8 8 10 8 6 6 7 8 9 10 12 9 2 13 5 6 4 5 7 8 9 5 2 1 3 2 5 7 6 7 5 4 6 11 5 8 12 13 13 15 17 17 20 21 22 17 16 15
13 12 11 10 8 8 7 9 10 8 6 5 7 8 5 6 5 4 6 7 6 4 4 5 7 2 1 3 3 2 2 5 1 4 4 5 6 6 8 6 5 12 15 19 22 22 21 21 19 19 20 15 15 14
12 12 10 9 8 8 7 12 10 8 5 2 2 3 4 3 12 7 3 3 3 4 6 8 10 9 4 5 2 1 3 3 4 3 4 6 12 8 7 2 7 14 17 18 21 20 21 23 19 18 16 15 12 14
12 12 10 10 9 7 12 13 11 9 2 2 3 2 4 8 5 3 4 5 5 5 5 7 11 6 4 4 2 3 2 2 4 1 3 3 2 3 3 11 10 13 19 18 16 18 21 22 22 16 16 15 12 15
12 11 10 10 9 12 15 14 12 5 2 3 4 7 4 3 3 4 5 4 6 4 6 5 4 3 2 2 3 2 2 3 5 2 3 4 5 4 10 15 15 19 20 20 16 19 22 22 22 19 18 16 15 14
11 11 10 9 12 16 15 13 12 2 5 3 4 3 3 4 1 7 6 5 4 3 3 4 4 3 4 2 2 2 3 5 4 3 3 2 6 10 14 13 16 18 16 17 18 18 23 19 21 22 17 16 13 15
11 10 9 12 17 16 14 12 10 4 2 4 4 2 6 7 7 6 8 3 4 1 1 4 2 2 2 3 3 4 5 4 5 4 4 5 10 13 13 13 13 16 17 19 20 21 19 17 14 17 20 14 10 13
10 10 12 16 17 15 13 10 8 3 4 4 4 5 9 9 6 6 4 3 6 5 3 3 2 3 3 3 3 4 4 6 6 1 5 7 8 10 13 12 13 14 16 17 18 16 11 9 9 15 14 13 12 13
10 12 5 18 16 13 11 9 4 3 4 5 7 8 8 8 5 4 5 6 7 3 3 3 2 3 6 4 6 6 4 1 5 6 5 4 9 9 11 12 13 16 17 17 16 15 10 7 11 13 15 13 9 17
11 3 19 19 16 12 12 5 2 4 5 5 7 8 10 8 8 5 5 2 2 4 3 3 4 5 3 4 5 2 1 2 4 7 4 4 7 9 11 10 12 16 16 16 16 15 8 8 11 10 12 14 9 10
2 12 22 20 13 7 3 3 2 4 7 7 9 9 6 8 8 6 6 3 5 5 2 3 2 5 3 3 3 1 4 6 5 6 4 4 6 7 7 9 13 16 15 14 14 9 11 12 12 5 8 9 12 3
12 14 21 20 6 3 6 6 4 5 8 8 6 8 8 5 9 9 8 6 4 6 2 4 5 3 2 2 6 3 4 4 6 6 5 3 6 7 7 7 9 14 16 13 12 8 5 2 8 8 4 5 7 6
19 19 18 12 3 1 4 4 4 5 5 4 4 7 9 8 8 7 7 7 7 7 5 5 8 5 3 8 3 5 6 5 6 6 4 6 5 4 6 6 6 9 11 13 12 12 6 7 9 10 10 9 9 8
11 8 10 3 3 5 3 2 4 5 6 6 6 5 6 5 6 7 7 7 7 11 9 7 9 9 6 6 6 6 7 7 7 8 5 5 2 2 4 4 4 3 5 7 10 12 10 8 9 9 11 9 10 10
7 14 4 6 4 4 4 3 3 2 4 6 7 6 4 3 6 6 4 7 6 7 11 9 8 10 9 6 4 9 10 9 8 5 2 0 3 4 5 3 5 5 3 5 7 9 11 10 8 8 10 9 11 11
11 5 4 6 4 2 5 3 4 4 4 3 4 4 3 2 3 3 2 6 8 10 6 5 4 5 7 10 9 8 7 6 4 3 1 1 1 2 2 4 6 5 4 5 4 3 6 7 11 9 9 11 9 11
4 5 5 5 6 4 3 4 5 5 4 3 3 3 2 3 3 4 5 3 4 6 9 4 4 5 4 6 5 4 1 4 4 2 2 4 4 9 7 5 7 5 4 5 6 5 4 6 8 9 10 11 12 12
2 2 3 4 4 4 4 4 4 2 2 3 4 2 3 3 2 3 1 1 1 3 2 1 3 4 4 4 3 1 1 4 3 3 6 4 6 9 5 5 5 8 8 8 10 8 6 6 6 7 8 8 11 10
3 5 5 6 3 5 3 2 0 3 2 3 3 4 2 3 3 2 2 3 3 2 3 4 5 7 5 4 3 3 4 5 7 9 8 8 8 8 10 10 9 7 8 10 10 9 9 10 9 9 7 8 9 11
4 6 6 5 4 3 2 3 2 2 1 2 3 3 2 3 1 3 4 4 2 3 2 6 10 10 5 6 4 3 6 9 10 10 9 10 10 10 10 10 12 10 9 11 11 9 9 9 10 11 9 9 10 11
4 4 6 6 4 1 2 3 1 2 3 4 2 2 3 3 2 3 5 10 8 7 9 8 4 4 8 8 8 7 7 9 10 12 9 8 9 10 11 9 8 8 11 11 10 12 12 13 13 13 14 13 12 13
3 5 4 5 5 4 2 2 3 3 1 1 3 3 1 3 1 5 1 4 5 8 13 10 9 8 8 8 8 9 10 5 9 13 7 5 6 8 7 6 9 9 7 8 12 11 12 11 13 14 13 12 11 10
3 3 2 4 2 2 3 7 6 6 7 8 2 5 2 6 5 4 3 3 6 7 8 8 7 6 7 8 9 12 9 6 2 5 5 7 7 7 7 6 8 7 8 7 8 6 6 5 7 10 10 8 7 8
1 1 2 3 3 4 6 6 9 8 10 11 7 1 8 7 7 4 3 3 7 6 8 5 7 8 8 8 8 6 7 8 6 12 11 7 3 6 7 5 3 5 7 6 3 5 6 10 10 9 10 9 9 8
2 3 2 2 3 5 5 4 5 5 5 9 5 5 7 5 8 3 3 3 6 7 9 10 7 12 9 11 9 5 11 6 9 9 10 2 3 8 8 2 3 5 6 6 3 6 5 7 9 5 5 6 6 9
1 1 3 3 3 5 5 4 3 3 4 4 5 7 6 4 4 5 3 4 6 8 9 6 7 8 11 13 7 3 9 7 10 10 10 10 9 9 6 6 6 7 7 2 10 10 11 11 7 8 4 9 7 8
Wind_Direction
270 274 279 283 286 289 289 284 284 292 307 324 334 340 340 343 346 343 311 324 327 309 297 297 316 299 295 262 287 2 305 80 272 273 275 283 281 281 279 269 274 282 280 257 242 287 281 4 1 316 4 89 46 38
264 265 271 278 284 287 288 285 268 274 291 312 326 332 336 342 344 338 289 344 340 279 285 307 287 275 273 284 292 299 310 316 321 319 336 326 315 323 324 297 314 325 9 341 331 292 325 350 357 350 350 20 20 351
267 264 266 273 281 283 282 279 260 259 277 298 316 323 329 335 338 339 306 308 319 291 286 251 242 211 223 230 247 277 283 337 309 354 321 299 298 303 291 296 324 313 2 313 329 114 41 316 330 33 357 319 346 348
265 260 264 270 274 275 279 277 255 241 258 282 302 314 319 322 324 321 298 306 297 306 279 42 94 193 233 231 256 267 282 293 284 279 283 293 288 318 293 310 302 295 309 289 290 278 345 241 95 41 338 312 320 327
255 262 264 259 259 266 273 274 254 232 244 269 291 304 310 318 316 295 272 269 45 311 319 313 309 271 236 234 238 247 260 269 265 264 262 271 299 310 294 278 271 270 277 296 314 338 327 303 185 142 348 310 308 308
248 248 250 251 255 262 262 264 245 221 231 258 281 298 302 312 323 286 172 50 354 9 296 292 336 276 237 220 221 248 250 240 246 265 303 288 302 311 286 275 289 319 317 336 320 315 307 299 289 288 198 214 249 273
245 244 242 245 251 257 260 258 227 205 217 255 279 296 294 298 294 287 355 351 339 313 271 287 277 160 207 204 231 219 18 304 328 287 256 274 284 252 268 272 277 292 306 334 313 330 325 330 310 311 283 271 267 273
244 239 236 240 245 251 248 250 196 191 211 250 272 291 290 287 274 263 210 217 258 265 260 277 274 271 149 241 185 146 227 224 241 256 261 267 279 242 254 265 46 1 336 320 315 304 296 303 305 299 294 267 264 259
240 232 232 235 237 244 242 205 177 184 208 253 289 302 276 217 239 74 102 137 215 281 280 234 282 321 277 238 112 187 320 277 53 241 226 225 247 221 248 257 319 339 323 312 305 296 292 288 292 296 297 309 285 264
233 228 224 229 234 226 235 170 165 171 188 297 297 224 233 52 116 142 156 190 207 226 229 260 277 268 349 8 11 272 253 284 298 256 196 214 247 71 79 340 300 318 302 298 296 290 291 283 276 267 294 286 280 296
227 221 218 221 225 226 177 159 161 159 167 216 224 255 107 147 219 235 229 224 182 228 223 238 233 265 350 286 307 341 316 306 272 71 266 255 230 127 228 310 310 299 292 284 268 264 273 269 272 255 263 270 280 288
217 214 214 217 218 182 161 162 162 182 222 330 285 258 241 205 235 238 231 215 206 244 216 224 255 166 55 345 290 35 288 282 254 326 261 258 65 345 310 310 310 307 302 299 286 270 271 262 264 255 244 256 258 275
210 209 206 208 183 161 161 165 178 248 327 282 217 235 224 223 247 226 222 202 224 198 244 203 195 119 142 80 112 203 249 245 287 232 242 302 359 338 323 321 310 313 301 292 288 276 273 248 255 246 244 240 250 264
203 197 196 182 160 157 158 165 189 217 235 234 209 228 232 199 235 203 277 302 264 165 281 235 168 194 135 182 171 235 223 255 244 236 237 6 340 331 327 315 312 310 308 306 297 291 269 257 240 234 234 225 230 255
187 188 177 158 152 155 162 170 182 211 282 246 216 232 222 241 263 313 289 277 277 290 263 337 213 206 172 196 210 256 217 239 234 341 348 344 335 328 339 326 327 324 330 314 308 299 271 256 239 217 205 215 218 240
169 137 144 146 148 150 155 158 168 229 246 239 227 237 272 271 275 267 256 274 269 266 266 201 246 235 196 221 201 220 250 284 7 340 345 323 338 331 337 329 326 326 323 320 311 319 292 248 212 199 205 219 225 241
147 129 152 142 144 153 187 189 186 237 258 235 237 233 254 254 273 267 282 295 234 258 308 269 261 231 159 227 214 214 340 283 323 333 2 12 349 338 336 335 326 326 326 321 327 323 315 289 234 216 222 230 226 229
96 141 142 142 139 132 180 242 222 247 251 251 261 264 257 278 282 271 256 252 258 240 205 217 265 250 250 325 8 286 301 319 342 348 59 44 10 356 327 334 333 335 333 343 348 11 34 344 336 286 280 265 254 12
136 144 150 154 163 186 179 192 226 253 234 256 256 260 261 259 259 254 248 196 215 269 247 266 236 278 301 256 296 334 4 332 338 314 99 29 31 354 338 334 337 335 346 354 5 355 346 338 5 6 340 4 38 33
129 139 152 166 312 261 193 206 218 255 271 290 261 245 254 248 258 252 275 236 218 234 236 228 256 318 330 298 302 329 344 329 330 320 12 14 29 1 347 340 339 340 344 352 10 3 359 49 34 23 18 44 87 294
121 148 158 215 231 234 277 208 245 265 298 278 294 331 286 265 261 239 245 236 208 231 238 247 259 271 212 272 317 338 336 12 327 320 359 304 86 317 328 324 324 325 345 4 17 352 1 35 51 48 39 45 72 72
104 161 145 213 248 235 249 203 249 272 262 271 289 251 262 282 248 249 271 269 242 239 243 255 266 286 302 299 336 330 319 312 305 332 4 234 306 318 358 354 328 332 63 49 32 9 18 17 37 42 55 45 53 63
153 192 218 208 237 191 256 207 242 226 252 250 267 242 188 187 240 198 208 218 225 231 245 240 230 263 287 288 288 296 302 281 278 284 259 87 31 282 336 19 7 50 70 92 84 32 39 5 36 43 53 53 51 66
194 199 209 195 191 247 217 226 223 241 235 251 251 266 168 206 228 210 225 202 203 176 237 229 264 269 286 304 282 246 147 158 210 135 170 120 107 63 55 34 43 32 16 75 101 88 47 63 53 51 46 50 50 54
144 254 154 242 232 227 226 232 211 274 258 307 287 10 8 305 267 258 290 78 330 307 306 357 317 0 342 47 45 18 158 117 154 130 105 169 124 105 106 76 55 36 56 65 77 90 98 91 88 87 85 78 81 77
191 204 195 203 241 217 228 283 205 284 296 302 335 326 309 282 253 351 313 315 293 253 121 114 82 73 46 61 258 264 86 61 66 66 61 73 74 69 79 84 66 91 81 81 79 82 85 87 90 92 95 98 96 97
236 214 194 204 251 239 166 148 268 304 6 282 291 285 280 268 251 68 308 348 264 230 120 99 111 119 196 235 235 193 107 92 88 86 78 69 62 52 52 51 44 45 115 106 95 93 96 95 91 95 106 96 95 95
264 236 206 185 204 301 133 85 323 272 244 216 281 292 262 263 57 147 156 205 220 200 125 75 336 202 161 151 133 133 129 119 110 86 71 84 93 91 84 80 72 64 66 36 92 99 94 92 88 85 86 92 101 102
251 246 139 63 43 50 62 184 238 241 260 170 237 252 9 323 129 127 197 226 172 119 119 156 191 181 146 118 91 61 96 97 95 98 98 69 74 103 95 88 90 85 81 76 52 38 39 60 86 96 94 77 64 66
265 122 201 124 106 221 235 209 231 237 228 228 258 285 205 160 119 129 188 135 122 122 128 140 136 134 127 119 127 127 100 109 171 114 146 146 153 115 134 108 123 121 115 109 110 103 9 3 84 100 95 98 108 97
214 169 114 85 237 235 228 227 246 256 248 250 255 89 125 139 129 199 166 153 115 108 102 91 83 76 73 82 96 111 125 129 184 75 57 342 338 101 74 104 159 131 124 150 188 114 99 117 108 98 89 89 82 129
61 26 91 225 231 204 197 232 247 215 198 88 74 345 342 288 140 150 80 126 142 109 59 50 34 32 50 48 27 87 63 49 41 70 104 308 42 52 37 332 128 99 89 145 121 120 100 79 100 105 105 90 96 96
7 265 235 245 229 178 229 203 223 323 91 117 199 185 223 267 122 100 51 338 325 105 133 149 130 132 118 101 242 146 108 76 73 80 84 71 55 30 43 349 39 55 42 323 97 117 115 108 89 284 57 73 57 56